Paganella, Italy

5:38 AM CET on December 08, 2016 (GMT +0100)
Paganella

Weather History for LIVP - September, 2013

Change the Weather History Date:

Thursday, September 19, 2013

  Actual Average Record
Temperature  
Mean Temperature 43 °F -  
Max Temperature 47 °F 46 °F 64 °F (2003)
Min Temperature 39 °F 37 °F 28 °F (2007)
Degree Days  
Heating Degree Days 22    
Moisture  
Dew Point 33 °F    
Average Humidity 66    
Maximum Humidity 87    
Minimum Humidity 35    
Precipitation  
Precipitation 0.00 in 0.10 in - ()
Sea Level Pressure  
Sea Level Pressure 29.87 in    
Wind  
Wind Speed 5 mph ()    
Max Wind Speed 9 mph    
Max Gust Speed -    
Visibility 8.2 miles    
Events      
Averages and records for this station are not official NWS values.
T = Trace of Precipitation, MM = Missing Value Source: Averaged Metar Reports

Daily Weather History Graph

Daily Weather History Graph

Search for Another Location

Airport or City:

Trip Planner

Search our weather history database for the weather conditions in past years. The results will help you decide how hot, cold, wet, or windy it might be!

Date:

Astronomy

Sep. 19, 2013 Rise Set
Actual Time 6:58 AM CEST 7:19 PM CEST
Civil Twilight 6:28 AM CEST 7:49 PM CEST
Nautical Twilight 5:53 AM CEST 8:24 PM CEST
Astronomical Twilight 5:16 AM CEST 9:01 PM CEST
Moon 7:04 PM CEST (9/19) 6:51 AM CEST (9/19)
Length of Visible Light 13h 20m
Length of Day
12h 20m
Full, 100% of the Moon is Illuminated
Sep 19
Full
Sep 19
Full
Sep 27
Last Quarter
Oct 5
New
Oct 12
First Quarter

Hourly Weather History & Observations

Time (CEST) Temp. Windchill Dew Point Humidity Pressure Visibility Wind Dir Wind Speed Gust Speed Precip Events Conditions
12:55 AM 41.0 °F 37.1 °F 37.4 °F 87% 29.71 in - NNE 5.8 mph - N/A   Clear
1:55 AM 41.0 °F 35.8 °F 35.6 °F 81% 29.74 in - NNE 8.1 mph - N/A   Clear
2:00 AM 40 °F - 36 °F 79%  in 12 mi NNE 8.1 mph - -   Partly Cloudy
2:55 AM 41.0 °F 39.0 °F 37.4 °F 87% 29.74 in - NNW 3.5 mph - N/A   Clear
3:55 AM 42.8 °F - 24.8 °F 49% 29.74 in - NNE 2.3 mph - N/A   Clear
4:55 AM 44.6 °F 42.2 °F 24.8 °F 46% 29.74 in - NNE 4.6 mph - N/A   Clear
5:00 AM 44 °F - 26 °F 35%  in 25 mi NNE 4.6 mph - -   Scattered Clouds
5:55 AM 42.8 °F 40.1 °F 24.8 °F 49% 29.77 in - North 4.6 mph - N/A   Clear
6:55 AM 41.0 °F 37.1 °F 30.2 °F 65% 29.77 in - North 5.8 mph - N/A   Clear
7:55 AM 39.2 °F 34.2 °F 30.2 °F 70% 29.77 in - North 6.9 mph - N/A   Clear
8:00 AM 39 °F - 31 °F 63%  in 47 mi North 6.9 mph - -   Partly Cloudy
8:55 AM 39.2 °F 34.2 °F 33.8 °F 81% 29.80 in 6.2 mi North 6.9 mph - N/A   Partly Cloudy
9:55 AM 41.0 °F 36.4 °F 33.8 °F 76% 29.83 in 6.2 mi North 6.9 mph - N/A   Partly Cloudy
10:55 AM 41.0 °F 36.4 °F 32.0 °F 70% 29.86 in 6.2 mi North 6.9 mph - N/A   Partly Cloudy
11:00 AM 41 °F - 31 °F 58%  in 31 mi North 6.9 mph - -   Scattered Clouds
11:55 AM 41.0 °F 37.1 °F 30.2 °F 65% 29.89 in 6.2 mi North 5.8 mph - N/A   Partly Cloudy
12:55 PM 44.6 °F 42.2 °F 30.2 °F 57% 29.92 in 6.2 mi North 4.6 mph - N/A   Partly Cloudy
1:55 PM 44.6 °F 42.2 °F 35.6 °F 71% 29.89 in 6.2 mi North 4.6 mph - N/A   Partly Cloudy
2:00 PM 45 °F - 35 °F 59%  in 31 mi North 4.6 mph - -   Scattered Clouds
2:55 PM 46.4 °F - 35.6 °F 66% 29.92 in 6.2 mi South 2.3 mph - N/A   Partly Cloudy
3:55 PM 46.4 °F - 32.0 °F 57% 29.92 in 6.2 mi NNE 2.3 mph - N/A   Partly Cloudy
4:55 PM 46.4 °F - 33.8 °F 62% 29.92 in 6.2 mi SSW 2.3 mph - N/A   Partly Cloudy
5:00 PM 46 °F - 34 °F 52%  in 31 mi SSW 2.3 mph - -   Scattered Clouds
5:55 PM 46.4 °F - 33.8 °F 62% 29.95 in 6.2 mi South 2.3 mph - N/A   Partly Cloudy
6:55 PM 46.4 °F 44.3 °F 35.6 °F 66% 29.95 in - WSW 4.6 mph - N/A   Clear
7:55 PM 42.8 °F 37.5 °F 32.0 °F 66% 29.98 in - SW 9.2 mph - N/A   Clear
8:00 PM 44 °F - 32 °F 52%  in 19 mi SW 9.2 mph - -   Scattered Clouds
8:55 PM 42.8 °F 39.3 °F 32.0 °F 66% 29.98 in - WSW 5.8 mph - N/A   Clear
9:55 PM 42.8 °F 41.1 °F 32.0 °F 66% 30.01 in 6.2 mi North 3.5 mph - N/A   Partly Cloudy
10:55 PM 41.0 °F 35.8 °F 35.6 °F 81% 30.01 in 6.2 mi WSW 8.1 mph - N/A   Partly Cloudy
11:00 PM 42 °F - 36 °F 71%  in 19 mi WSW 8.1 mph - -   Scattered Clouds
11:55 PM 41.0 °F 36.4 °F 37.4 °F 87% 30.01 in 6.2 mi WSW 6.9 mph - N/A   Partly Cloudy